• în România
  • Lista ţărilor
  • Pe 7 zile
  • Temperatura apei
  • Hartă satelitară
  • Meteo pe hartă
  • Widget-uri
  • user-avatar
    Intrare

    Meteo pe oră la Saurimo

    Astăzi, 22 Februarie, Joi

    Timp Temperatura Precipitaţii Vânt Presiune Umiditate
    00:00 +21°C° 0 mm 1 m/s 667 mmHg 94%
    01:00 +20°C° 0 mm 1 m/s 667 mmHg 95%
    02:00 +20°C° 0 mm 1 m/s 667 mmHg 95%
    03:00 +20°C° 0 mm 1 m/s 667 mmHg 96%
    04:00 +20°C° 0 mm 1 m/s 667 mmHg 96%
    05:00 +20°C° 0 mm 1 m/s 667 mmHg 94%
    06:00 +21°C° 0 mm 1 m/s 668 mmHg 93%
    07:00 +21°C° 0 mm 2 m/s 668 mmHg 90%
    08:00 +24°C° 0,3 mm 2 m/s 669 mmHg 83%
    09:00 +26°C° 0,3 mm 2 m/s 669 mmHg 76%
    10:00 +28°C° 0,3 mm 2 m/s 669 mmHg 70%
    11:00 +29°C° 0,4 mm 2 m/s 669 mmHg 63%
    12:00 +30°C° 0,4 mm 2 m/s 669 mmHg 57%
    13:00 +30°C° 0 mm 2 m/s 669 mmHg 54%
    14:00 +30°C° 0,9 mm 2 m/s 668 mmHg 61%
    15:00 +29°C° 0,9 mm 2 m/s 668 mmHg 69%
    16:00 +28°C° 0,9 mm 2 m/s 667 mmHg 76%
    17:00 +26°C° 0,7 mm 2 m/s 667 mmHg 81%
    18:00 +24°C° 0,7 mm 1 m/s 667 mmHg 86%
    19:00 +23°C° 0,7 mm 1 m/s 667 mmHg 91%
    20:00 +22°C° 0,2 mm 1 m/s 667 mmHg 92%
    21:00 +22°C° 0,2 mm 1 m/s 668 mmHg 93%
    22:00 +21°C° 0,2 mm 1 m/s 668 mmHg 94%
    23:00 +21°C° 0,1 mm 1 m/s 668 mmHg 94%

    Mâine, 23 Februarie, Vineri

    Timp Temperatura Precipitaţii Vânt Presiune Umiditate
    00:00 +21°C° 0,1 mm 1 m/s 668 mmHg 94%
    01:00 +21°C° 0,1 mm 1 m/s 668 mmHg 95%
    02:00 +21°C° 0,3 mm 1 m/s 668 mmHg 95%
    03:00 +21°C° 0,3 mm 1 m/s 668 mmHg 95%
    04:00 +21°C° 0,3 mm 1 m/s 667 mmHg 96%
    05:00 +21°C° 0,3 mm 1 m/s 668 mmHg 95%
    06:00 +21°C° 0,3 mm 1 m/s 668 mmHg 94%
    07:00 +22°C° 0,3 mm 1 m/s 668 mmHg 93%
    08:00 +23°C° 0,5 mm 1 m/s 669 mmHg 89%
    09:00 +24°C° 0,5 mm 2 m/s 669 mmHg 85%
    10:00 +25°C° 0,5 mm 2 m/s 669 mmHg 82%
    11:00 +26°C° 0,7 mm 2 m/s 669 mmHg 77%
    12:00 +27°C° 0,7 mm 2 m/s 669 mmHg 73%
    13:00 +28°C° 0,7 mm 2 m/s 669 mmHg 68%
    14:00 +27°C° 0,4 mm 2 m/s 668 mmHg 71%
    15:00 +27°C° 0,4 mm 2 m/s 668 mmHg 73%
    16:00 +27°C° 0,4 mm 2 m/s 667 mmHg 76%
    17:00 +25°C° 0,3 mm 2 m/s 668 mmHg 82%
    18:00 +24°C° 0,3 mm 1 m/s 668 mmHg 88%
    19:00 +22°C° 0,3 mm 1 m/s 668 mmHg 94%
    20:00 +22°C° 1 mm 1 m/s 668 mmHg 94%
    21:00 +22°C° 1 mm 1 m/s 669 mmHg 95%
    22:00 +21°C° 1 mm 1 m/s 669 mmHg 96%
    23:00 +21°C° 0,1 mm 1 m/s 669 mmHg 96%

    Poimâine, 24 Februarie, Sâmbătă

    Timp Temperatura Precipitaţii Vânt Presiune Umiditate
    00:00 +21°C° 0,1 mm 1 m/s 669 mmHg 97%
    01:00 +21°C° 0,1 mm 1 m/s 668 mmHg 97%
    02:00 +20°C° 0 mm 1 m/s 668 mmHg 97%
    03:00 +20°C° 0 mm 1 m/s 668 mmHg 96%
    04:00 +20°C° 0 mm 1 m/s 668 mmHg 96%
    05:00 +20°C° 0 mm 1 m/s 668 mmHg 95%
    06:00 +20°C° 0 mm 1 m/s 669 mmHg 94%
    07:00 +20°C° 0 mm 2 m/s 669 mmHg 93%
    08:00 +21°C° 0,4 mm 2 m/s 670 mmHg 88%
    09:00 +24°C° 0,4 mm 2 m/s 670 mmHg 83%
    10:00 +25°C° 0,4 mm 3 m/s 670 mmHg 78%
    11:00 +26°C° 0,9 mm 3 m/s 670 mmHg 75%
    12:00 +27°C° 0,9 mm 3 m/s 669 mmHg 72%
    13:00 +28°C° 0,9 mm 2 m/s 668 mmHg 70%
    14:00 +27°C° 1,3 mm 2 m/s 668 mmHg 74%
    15:00 +27°C° 1,3 mm 2 m/s 668 mmHg 77%
    16:00 +26°C° 1,3 mm 1 m/s 667 mmHg 81%
    17:00 +25°C° 0,6 mm 1 m/s 668 mmHg 85%
    18:00 +23°C° 0,6 mm 1 m/s 668 mmHg 89%
    19:00 +22°C° 0,6 mm 1 m/s 668 mmHg 93%
    20:00 +22°C° 0 mm 1 m/s 668 mmHg 93%
    21:00 +21°C° 0 mm 1 m/s 669 mmHg 94%
    22:00 +21°C° 0 mm 1 m/s 669 mmHg 95%
    23:00 +21°C° 0 mm 1 m/s 669 mmHg 95%

    25 Februarie, Duminică

    Timp Temperatura Precipitaţii Vânt Presiune Umiditate
    00:00 +21°C° 0 mm 1 m/s 669 mmHg 95%
    01:00 +21°C° 0 mm 1 m/s 669 mmHg 95%
    02:00 +20°C° 0,3 mm 1 m/s 668 mmHg 95%
    03:00 +20°C° 0,3 mm 1 m/s 668 mmHg 96%
    04:00 +20°C° 0,3 mm 1 m/s 668 mmHg 96%
    05:00 +20°C° 0 mm 1 m/s 669 mmHg 95%
    06:00 +21°C° 0 mm 1 m/s 669 mmHg 95%
    07:00 +21°C° 0 mm 1 m/s 670 mmHg 94%
    08:00 +21°C° 0,1 mm 2 m/s 670 mmHg 86%
    09:00 +24°C° 0,1 mm 3 m/s 671 mmHg 78%
    10:00 +25°C° 0,1 mm 4 m/s 671 mmHg 70%
    11:00 +27°C° 0,2 mm 4 m/s 670 mmHg 65%
    12:00 +28°C° 0,2 mm 4 m/s 670 mmHg 60%
    13:00 +29°C° 0,2 mm 4 m/s 669 mmHg 55%
    14:00 +29°C° 0,4 mm 4 m/s 669 mmHg 60%
    15:00 +28°C° 0,4 mm 3 m/s 669 mmHg 65%
    16:00 +27°C° 0,4 mm 3 m/s 668 mmHg 70%
    17:00 +25°C° 0,8 mm 2 m/s 669 mmHg 77%
    18:00 +23°C° 0,8 mm 2 m/s 669 mmHg 85%
    19:00 +21°C° 0,8 mm 2 m/s 669 mmHg 92%
    20:00 +20°C° 0,6 mm 2 m/s 670 mmHg 93%
    21:00 +20°C° 0,6 mm 2 m/s 670 mmHg 94%
    22:00 +20°C° 0,6 mm 2 m/s 670 mmHg 95%
    23:00 +19°C° 0,3 mm 2 m/s 670 mmHg 96%

    26 Februarie, Luni

    Timp Temperatura Precipitaţii Vânt Presiune Umiditate
    00:00 +19°C° 0,3 mm 2 m/s 670 mmHg 96%
    01:00 +19°C° 0,3 mm 2 m/s 669 mmHg 96%
    02:00 +19°C° 0,1 mm 2 m/s 669 mmHg 96%
    03:00 +19°C° 0,1 mm 2 m/s 669 mmHg 96%
    04:00 +18°C° 0,1 mm 2 m/s 669 mmHg 96%
    05:00 +19°C° 0,2 mm 2 m/s 669 mmHg 96%
    06:00 +19°C° 0,2 mm 2 m/s 670 mmHg 96%
    07:00 +19°C° 0,2 mm 2 m/s 670 mmHg 95%
    08:00 +20°C° 0,2 mm 2 m/s 670 mmHg 92%
    09:00 +21°C° 0,2 mm 2 m/s 671 mmHg 89%
    10:00 +23°C° 0,2 mm 2 m/s 671 mmHg 86%
    11:00 +23°C° 0,5 mm 2 m/s 671 mmHg 85%
    12:00 +23°C° 0,5 mm 2 m/s 670 mmHg 83%
    13:00 +23°C° 0,5 mm 2 m/s 669 mmHg 82%
    14:00 +24°C° 0,1 mm 2 m/s 669 mmHg 80%
    15:00 +24°C° 0,1 mm 2 m/s 669 mmHg 77%
    16:00 +25°C° 0,1 mm 2 m/s 669 mmHg 75%
    17:00 +23°C° 0 mm 2 m/s 669 mmHg 78%
    18:00 +21°C° 0 mm 2 m/s 669 mmHg 82%
    19:00 +21°C° 0 mm 1 m/s 669 mmHg 86%
    20:00 +21°C° 0 mm 1 m/s 669 mmHg 86%
    21:00 +20°C° 0 mm 1 m/s 669 mmHg 85%
    22:00 +20°C° 0 mm 1 m/s 670 mmHg 85%
    23:00 +20°C° 0 mm 1 m/s 669 mmHg 84%

    27 Februarie, Marţi

    Timp Temperatura Precipitaţii Vânt Presiune Umiditate
    00:00 +20°C° 0 mm 1 m/s 669 mmHg 83%
    01:00 +19°C° 0 mm 1 m/s 668 mmHg 83%
    02:00 +19°C° 0 mm 1 m/s 668 mmHg 83%
    03:00 +19°C° 0 mm 1 m/s 668 mmHg 84%
    04:00 +19°C° 0 mm 1 m/s 668 mmHg 85%
    05:00 +19°C° 0 mm 1 m/s 668 mmHg 85%
    06:00 +20°C° 0 mm 1 m/s 669 mmHg 84%
    07:00 +18°C° 0 mm 0 m/s 669 mmHg 83%
    08:00 +23°C° 0 mm 1 m/s 670 mmHg 75%
    09:00 +26°C° 0 mm 1 m/s 671 mmHg 66%
    10:00 +29°C° 0 mm 1 m/s 671 mmHg 57%
    11:00 +31°C° 0,1 mm 1 m/s 671 mmHg 53%
    12:00 +32°C° 0,1 mm 1 m/s 670 mmHg 50%
    13:00 +33°C° 0,1 mm 1 m/s 669 mmHg 46%
    14:00 +32°C° 0 mm 1 m/s 669 mmHg 50%
    15:00 +31°C° 0 mm 1 m/s 668 mmHg 54%
    16:00 +30°C° 0 mm 1 m/s 668 mmHg 58%
    17:00 +28°C° 0 mm 1 m/s 668 mmHg 63%
    18:00 +27°C° 0 mm 1 m/s 668 mmHg 68%
    19:00 +25°C° 0 mm 1 m/s 668 mmHg 73%
    20:00 +24°C° 0,1 mm 2 m/s 669 mmHg 79%
    21:00 +23°C° 0,1 mm 2 m/s 669 mmHg 85%
    22:00 +20°C° 0,1 mm 2 m/s 669 mmHg 90%
    23:00 +21°C° 0,2 mm 1 m/s 669 mmHg 92%
    Arată mai mult